Terug naar catalogus

STARLINK-34997

ActiefCommunicatieVLEO
NORAD 65418·PAYLOAD·🇺🇸 United States

Gelanceerd Aug 31, 2025 vanaf Cape Canaveral Space Force Station

Loading…

Volgende Passages (komende 24 uur)

TLE

VersSource: CelesTrak SupGP

Epoch: Sep 14, 2026, 20:57 UTC

1 65418C 25192Q   26257.87340278  .00001490  00000+0  44040-4 0  2570
2 65418  53.1592  71.9218 0001253  80.8734 253.8741 15.34384292    12

Volg STARLINK-34997 in realtime met AllMySat

Download on the App Store